Showing default

M1, 43779

Orbit data source: Space-Track

M1, 43779 is a payload satellite owned by RAAF (AU) in SSO that was launched on Mon, 03 Dec 2018 UTC via an FALCON 9 launch vehicle from the Air Force Western Test Range (AFWTR). Payload-class satellites include a variety of spacecraft equipped with specific instruments for various scientific and technological missions. These include communications satellites like Starlink; space stations such as the ISS; scientific satellites like the Hubble; Earth observation satellites from companies like Planet Labs, Umbra, and HawkEye 360; GPS; miniature CubeSats for education and research; and military/defense satellites.

Loading next visibility...
Identifier
43779, 2018-099X
Orbit
SSO
Country
Flag of AUAU / AUS
Related business
Manufacturer
U. NSW
Mission
Non-operational Defense Imaging
Bus & Motor
CUBESAT 3U, Unknown motor
Mass
5 kg wet, 5 kg dry
Launch date (UTC)
2018-12-03 (7 years ago)
Launch vehicle
FALCON 9
Launch site
Air Force Western Test Range (AFWTR)
Object type
Payload
Rocket body
Debris
Shape & HBR
Box + 1 Pan, 0.1 m
Radar Cross Section
0.035 m², Small (<0.1 m²)

Expand to show TLE details & history
Last TLE update: 22 hours ago

TLE from 22 hours ago
0 M1
1 43779U 18099X   25308.86207215  .00003363  00000-0  23414-3 0  9998
2 43779  97.4736 353.9114 0015171  82.8415 277.4537 15.06028915378355
Epoch: 2025-11-04T20:41Z
TLE epoch observation values (Epoch: 2025-11-04T20:41:23.033Z)
Latitude
-0.00001°
Longitude
-0.77758°
Altitude
550.071 km
Speed
7.588 km/s
True Right ascension
23h 35m 38s
True Declination
0° 00' 00"
Sunlit
Object was in full shadow at epoch
Visualization orbit readout
Latitude
Unknown
Longitude
Unknown
Altitude
Unknown
Speed
Unknown
Apparent Right ascension
Unknown
Apparent Declination
Unknown
Sunlit
N/A
Visualization observer readout
Local Sidereal Time
14:24:43
Azimuth
Unknown
Elevation
Unknown
Doppler factor
Unknown
Orbital elements
Apogee altitude
555.84 km
Perigee altitude
534.833 km
Semi-major axis
6,923.473 km
Eccentricity
0.00152
Inclination
97.4736°
RAAN
353.9114°
Arg. of periapsis
82.8415°
True anomaly
277.28128°
Mean anomaly
277.4537°
Eccentric anomaly
277.36749°
Mean motion
3.76753 °/min
Orbital period
95.55 mins
BSTAR
0.00023414
Loading maneuver chart data...
Computing Atmospheric mass density...
Loading historical data...
Loading historical data...
Loading historical data...
Loading historical data...
Loading historical data...
Loading historical data...
Loading historical data...

Documentation

Showing up to 5 results
|